Prescott, AZ

11:03 AM MST on February 24, 2017 (GMT -0700)
Love

Weather History for KPRC - September, 2013

Change the Weather History Date:

Sunday, September 15, 2013

  Actual Average Record
Temperature  
Mean Temperature 69 °F 68 °F  
Max Temperature 84 °F 82 °F 94 °F (1956)
Min Temperature 53 °F 54 °F 41 °F (1970)
Degree Days  
Heating Degree Days 0    
Month to date heating degree days 7  
Since 1 July heating degree days 7  
Cooling Degree Days 4    
Month to date cooling degree days 79  
Year to date cooling degree days 1100  
Growing Degree Days 19 (Base 50)    
Moisture  
Dew Point 51 °F    
Average Humidity 56    
Maximum Humidity 89    
Minimum Humidity 25    
Precipitation  
Precipitation 0.00 in 0.05 in 0.87 in (2001)
Month to date precipitation 2.48 0.83  
Year to date precipitation 10.70 10.49  
Sea Level Pressure  
Sea Level Pressure 29.84 in    
Wind  
Wind Speed 4 mph (South)    
Max Wind Speed 29 mph    
Max Gust Speed 30 mph    
Visibility 10 miles    
Events      
T = Trace of Precipitation, MM = Missing Value Source: NWS Daily Summary

Daily Weather History Graph

Daily Weather History Graph

Search for Another Location

Airport or City:

Trip Planner

Search our weather history database for the weather conditions in past years. The results will help you decide how hot, cold, wet, or windy it might be!

Date:

Astronomy

Sep. 15, 2013 Rise Set
Actual Time 6:12 AM MST 6:35 PM MST
Civil Twilight 5:47 AM MST 7:01 PM MST
Nautical Twilight 5:18 AM MST 7:30 PM MST
Astronomical Twilight 4:47 AM MST 8:00 PM MST
Moon 3:59 PM MST (9/15) 2:03 AM MST (9/15)
Length of Visible Light 13h 13m
Length of Day
12h 23m
Waxing Gibbous, 83% of the Moon is Illuminated
Sep 15
Waxing Gibbous
Sep 19
Full
Sep 26
Last Quarter
Oct 4
New
Oct 11
First Quarter

Hourly Weather History & Observations

Time (MST) Temp. Heat Index Dew Point Humidity Pressure Visibility Wind Dir Wind Speed Gust Speed Precip Events Conditions
12:53 AM 57.9 °F - 52.0 °F 81% 29.78 in 10.0 mi Calm Calm - N/A   Clear
1:53 AM 57.0 °F - 51.1 °F 81% 29.78 in 10.0 mi South 6.9 mph - N/A   Clear
2:53 AM 55.9 °F - 51.1 °F 84% 29.78 in 10.0 mi South 4.6 mph - N/A   Clear
3:53 AM 55.9 °F - 50.0 °F 80% 29.81 in 10.0 mi South 5.8 mph - N/A   Clear
4:53 AM 54.0 °F - 50.0 °F 86% 29.84 in 10.0 mi South 4.6 mph - N/A   Clear
5:53 AM 55.0 °F - 50.0 °F 83% 29.86 in 10.0 mi South 8.1 mph - N/A   Clear
6:53 AM 57.0 °F - 50.0 °F 77% 29.87 in 10.0 mi SW 3.5 mph - N/A   Clear
7:53 AM 63.0 °F - 52.0 °F 67% 29.87 in 10.0 mi Calm Calm - N/A   Clear
8:53 AM 68.0 °F - 54.0 °F 61% 29.88 in 10.0 mi Calm Calm - N/A   Clear
9:53 AM 73.9 °F - 54.0 °F 50% 29.88 in 10.0 mi Calm Calm - N/A   Clear
10:53 AM 75.9 °F - 55.0 °F 48% 29.88 in 10.0 mi Calm Calm - N/A   Partly Cloudy
11:53 AM 80.1 °F 80.1 °F 55.0 °F 42% 29.86 in 10.0 mi NNE 5.8 mph - N/A   Scattered Clouds
12:53 PM 81.0 °F - 48.0 °F 31% 29.85 in 10.0 mi NNW 4.6 mph - N/A   Clear
1:53 PM 82.9 °F - 48.0 °F 29% 29.83 in 10.0 mi Calm Calm - N/A   Scattered Clouds
2:53 PM 84.0 °F - 45.0 °F 25% 29.81 in 10.0 mi Variable 3.5 mph - N/A   Scattered Clouds
3:53 PM 82.9 °F - 46.9 °F 28% 29.80 in 10.0 mi Variable 4.6 mph - N/A   Scattered Clouds
4:53 PM 84.0 °F - 45.0 °F 25% 29.81 in 10.0 mi North 10.4 mph - N/A   Scattered Clouds
5:53 PM 81.0 °F - 48.0 °F 31% 29.82 in 10.0 mi NE 5.8 mph - N/A   Scattered Clouds
6:53 PM 75.0 °F - 51.1 °F 43% 29.84 in 10.0 mi ESE 4.6 mph - N/A   Partly Cloudy
7:53 PM 71.1 °F - 51.1 °F 49% 29.85 in 10.0 mi South 4.6 mph - N/A   Clear
8:53 PM 68.0 °F - 52.0 °F 56% 29.86 in 10.0 mi South 4.6 mph - N/A   Clear
9:53 PM 64.9 °F - 52.0 °F 63% 29.86 in 10.0 mi SSW 5.8 mph - N/A   Clear
10:53 PM 64.0 °F - 51.1 °F 63% 29.86 in 10.0 mi Calm Calm - N/A   Clear
11:53 PM 62.1 °F - 50.0 °F 65% 29.86 in 10.0 mi SSW 8.1 mph - N/A   Clear